Tracking 31027 objects as of 19-Jul-2025
HD Live streaming from Space Station
objects crossing your sky now

STARLINK-1091

Track STARLINK-1091 now!
10-day predictions
STARLINK-1091 is classified as:


NORAD ID: 44940
Int'l Code: 2020-001AC
Perigee: 400.2 km
Apogee: 410.6 km
Inclination: 53.0 °
Period: 92.5 minutes
Semi major axis: 6776 km
RCS: Unknown
Launch date: January 7, 2020
Source: United States (US)
Launch site: AIR FORCE EASTERN TEST RANGE (AFETR)
Your satellite tracking list
IRIDIUM 33 DEB
Track 1 satellite(s)




NASA's NSSDC Master Catalog

Two Line Element Set (TLE):
1 44940U 20001AC  25199.49812200  .00038036  00000-0  53412-3 0  9994
2 44940  53.0493 279.3979 0007632 302.9306  57.0970 15.56338741305081
Source of the keplerian elements: AFSPC